Location: Kapuskasing
(49.3803°N, 82.4001°W)
Time: 11:19:52
(UTC-04:00)

RS-44 - Pass Details

Date: 15 March 2026
Orbit: 1175 x 1510 km, 82.5° (Epoch: 11 April)

Event Time Altitude Azimuth Distance (km) Brightness Sun altitude
Rises 00:59:23 0° 354° (N) 4,350 ? -42.0°
Reaches altitude 10° 01:05:23 10° 28° (NNE) 3,469 ? -42.2°
Maximum altitude 01:07:28 11° 43° (NE) 3,420 ? -42.3°
Drops below altitude 10° 01:09:34 10° 58° (ENE) 3,526 ? -42.3°
Enters shadow 01:13:39 - 82° (E) 4,113 ? -42.4°
